Year,Month,Day,Hour,Minute,Value (Times are PST for temperature in C)
2016,04,22,00,00,12.00
2016,04,22,00,01,12.00
2016,04,22,00,02,12.00
2016,04,22,00,03,12.00
2016,04,22,00,04,11.90
2016,04,22,00,05,11.90
2016,04,22,00,06,11.90
2016,04,22,00,07,11.90
2016,04,22,00,08,11.90
2016,04,22,00,09,11.80
2016,04,22,00,10,11.80
2016,04,22,00,11,11.80
2016,04,22,00,12,11.80
2016,04,22,00,13,11.80
2016,04,22,00,14,11.80
2016,04,22,00,15,11.80
2016,04,22,00,16,11.80
2016,04,22,00,17,11.80
2016,04,22,00,18,11.80
2016,04,22,00,19,11.80
2016,04,22,00,20,11.80
2016,04,22,00,21,11.70
2016,04,22,00,22,11.70
2016,04,22,00,23,11.70
2016,04,22,00,24,11.70
2016,04,22,00,25,11.70
2016,04,22,00,26,11.60
2016,04,22,00,27,11.60
2016,04,22,00,28,11.60
2016,04,22,00,29,11.60
2016,04,22,00,30,11.60
2016,04,22,00,31,11.60
2016,04,22,00,32,11.60
2016,04,22,00,33,11.60
2016,04,22,00,34,11.60
2016,04,22,00,35,11.60
2016,04,22,00,36,11.60
2016,04,22,00,37,11.60
2016,04,22,00,38,11.60
2016,04,22,00,39,11.60
2016,04,22,00,40,11.60
2016,04,22,00,41,11.60
2016,04,22,00,42,11.60
2016,04,22,00,43,11.60
2016,04,22,00,44,11.60
2016,04,22,00,45,11.60
2016,04,22,00,46,11.60
2016,04,22,00,47,11.60
2016,04,22,00,48,11.60
2016,04,22,00,49,11.50
2016,04,22,00,50,11.40
2016,04,22,00,51,11.40
2016,04,22,00,52,11.40
2016,04,22,00,53,11.40
2016,04,22,00,54,11.40
2016,04,22,00,55,11.40
2016,04,22,00,56,11.40
2016,04,22,00,57,11.30
2016,04,22,00,58,11.30
2016,04,22,00,59,11.20
2016,04,22,01,00,11.20
2016,04,22,01,01,11.10
2016,04,22,01,02,11.10
2016,04,22,01,03,11.10
2016,04,22,01,04,11.10
2016,04,22,01,05,11.10
2016,04,22,01,06,11.10
2016,04,22,01,07,11.10
2016,04,22,01,08,11.10
2016,04,22,01,09,11.10
2016,04,22,01,10,11.10
2016,04,22,01,11,10.90
2016,04,22,01,12,10.90
2016,04,22,01,13,10.90
2016,04,22,01,14,10.90
2016,04,22,01,15,10.90
2016,04,22,01,16,10.90
2016,04,22,01,17,10.90
2016,04,22,01,18,10.90
2016,04,22,01,19,10.90
2016,04,22,01,20,10.90
2016,04,22,01,21,10.90
2016,04,22,01,22,10.90
2016,04,22,01,23,10.90
2016,04,22,01,24,10.90
2016,04,22,01,25,10.90
2016,04,22,01,26,10.80
2016,04,22,01,27,10.80
2016,04,22,01,28,10.80
2016,04,22,01,29,10.80
2016,04,22,01,30,10.80
2016,04,22,01,31,10.70
2016,04,22,01,32,10.70
2016,04,22,01,33,10.70
2016,04,22,01,34,10.70
2016,04,22,01,35,10.70
2016,04,22,01,36,10.70
2016,04,22,01,37,10.70
2016,04,22,01,38,10.70
2016,04,22,01,39,10.70
2016,04,22,01,40,10.70
2016,04,22,01,41,10.70
2016,04,22,01,42,10.70
2016,04,22,01,43,10.70
2016,04,22,01,44,10.70
2016,04,22,01,45,10.70
2016,04,22,01,46,10.70
2016,04,22,01,47,10.60
2016,04,22,01,48,10.60
2016,04,22,01,49,10.60
2016,04,22,01,50,10.60
2016,04,22,01,51,10.60
2016,04,22,01,52,10.60
2016,04,22,01,53,10.60
2016,04,22,01,54,10.60
2016,04,22,01,55,10.60
2016,04,22,01,56,10.60
2016,04,22,01,57,10.60
2016,04,22,01,58,10.60
2016,04,22,01,59,10.60
2016,04,22,02,00,10.60
2016,04,22,02,01,10.60
2016,04,22,02,02,10.60
2016,04,22,02,03,10.60
2016,04,22,02,04,10.60
2016,04,22,02,05,10.50
2016,04,22,02,06,10.40
2016,04,22,02,07,10.40
2016,04,22,02,08,10.40
2016,04,22,02,09,10.40
2016,04,22,02,10,10.40
2016,04,22,02,11,10.40
2016,04,22,02,12,10.40
2016,04,22,02,13,10.40
2016,04,22,02,14,10.40
2016,04,22,02,15,10.40
2016,04,22,02,16,10.40
2016,04,22,02,17,10.40
2016,04,22,02,18,10.40
2016,04,22,02,19,10.50
2016,04,22,02,20,10.60
2016,04,22,02,21,10.60
2016,04,22,02,22,10.60
2016,04,22,02,23,10.60
2016,04,22,02,24,10.60
2016,04,22,02,25,10.60
2016,04,22,02,26,10.60
2016,04,22,02,27,10.60
2016,04,22,02,28,10.60
2016,04,22,02,29,10.60
2016,04,22,02,30,10.60
2016,04,22,02,31,10.60
2016,04,22,02,32,10.60
2016,04,22,02,33,10.60
2016,04,22,02,34,10.60
2016,04,22,02,35,10.50
2016,04,22,02,36,10.40
2016,04,22,02,37,10.40
2016,04,22,02,38,10.40
2016,04,22,02,39,10.40
2016,04,22,02,40,10.40
2016,04,22,02,41,10.40
2016,04,22,02,42,10.40
2016,04,22,02,43,10.40
2016,04,22,02,44,10.60
2016,04,22,02,45,10.60
2016,04,22,02,46,10.60
2016,04,22,02,47,10.60
2016,04,22,02,48,10.60
2016,04,22,02,49,10.60
2016,04,22,02,50,10.60
2016,04,22,02,51,10.60
2016,04,22,02,52,10.60
2016,04,22,02,53,10.60
2016,04,22,02,54,10.60
2016,04,22,02,55,10.60
2016,04,22,02,56,10.60
2016,04,22,02,57,10.60
2016,04,22,02,58,10.60
2016,04,22,02,59,10.60
2016,04,22,03,00,10.60
2016,04,22,03,01,10.60
2016,04,22,03,02,10.60
2016,04,22,03,03,10.60
2016,04,22,03,04,10.60
2016,04,22,03,05,10.60
2016,04,22,03,06,10.60
2016,04,22,03,07,10.60
2016,04,22,03,08,10.60
2016,04,22,03,09,10.60
2016,04,22,03,10,10.60
2016,04,22,03,11,10.60
2016,04,22,03,12,10.60
2016,04,22,03,13,10.60
2016,04,22,03,14,10.60
2016,04,22,03,15,10.60
2016,04,22,03,16,10.60
2016,04,22,03,17,10.60
2016,04,22,03,18,10.60
2016,04,22,03,19,10.60
2016,04,22,03,20,10.60
2016,04,22,03,21,10.60
2016,04,22,03,22,10.60
2016,04,22,03,23,10.60
2016,04,22,03,24,10.70
2016,04,22,03,25,10.70
2016,04,22,03,26,10.70
2016,04,22,03,27,10.70
2016,04,22,03,28,10.70
2016,04,22,03,29,10.70
2016,04,22,03,30,10.70
2016,04,22,03,31,10.60
2016,04,22,03,32,10.60
2016,04,22,03,33,10.60
2016,04,22,03,34,10.60
2016,04,22,03,35,10.60
2016,04,22,03,36,10.60
2016,04,22,03,37,10.70
2016,04,22,03,38,10.70
2016,04,22,03,39,10.70
2016,04,22,03,40,10.70
2016,04,22,03,41,10.70
2016,04,22,03,42,10.70
2016,04,22,03,43,10.70
2016,04,22,03,44,10.80
2016,04,22,03,45,10.80
2016,04,22,03,46,10.80
2016,04,22,03,47,10.80
2016,04,22,03,48,10.80
2016,04,22,03,49,10.80
2016,04,22,03,50,10.90
2016,04,22,03,51,10.90
2016,04,22,03,52,10.90
2016,04,22,03,53,10.90
2016,04,22,03,54,10.90
2016,04,22,03,55,10.90
2016,04,22,03,56,10.90
2016,04,22,03,57,10.90
2016,04,22,03,58,10.90
2016,04,22,03,59,10.90
2016,04,22,04,00,10.90
2016,04,22,04,01,10.90
2016,04,22,04,02,10.90
2016,04,22,04,03,10.90
2016,04,22,04,04,10.90
2016,04,22,04,05,10.90
2016,04,22,04,06,10.90
2016,04,22,04,07,11.00
2016,04,22,04,08,11.10
2016,04,22,04,09,11.10
2016,04,22,04,10,11.10
2016,04,22,04,11,11.10
2016,04,22,04,12,11.10
2016,04,22,04,13,11.10
2016,04,22,04,14,11.10
2016,04,22,04,15,11.10
2016,04,22,04,16,11.10
2016,04,22,04,17,11.10
2016,04,22,04,18,11.10
2016,04,22,04,19,11.10
2016,04,22,04,20,11.10
2016,04,22,04,21,11.10
2016,04,22,04,22,11.10
2016,04,22,04,23,11.10
2016,04,22,04,24,11.10
2016,04,22,04,25,11.10
2016,04,22,04,26,11.10
2016,04,22,04,27,11.10
2016,04,22,04,28,11.10
2016,04,22,04,29,11.10
2016,04,22,04,30,11.10
2016,04,22,04,31,11.20
2016,04,22,04,32,11.20
2016,04,22,04,33,11.20
2016,04,22,04,34,11.20
2016,04,22,04,35,11.20
2016,04,22,04,36,11.20
2016,04,22,04,37,11.20
2016,04,22,04,38,11.20
2016,04,22,04,39,11.20
2016,04,22,04,40,11.20
2016,04,22,04,41,11.20
2016,04,22,04,42,11.20
2016,04,22,04,43,11.20
2016,04,22,04,44,11.20
2016,04,22,04,45,11.30
2016,04,22,04,46,11.30
2016,04,22,04,47,11.30
2016,04,22,04,48,11.30
2016,04,22,04,49,11.30
2016,04,22,04,50,11.30
2016,04,22,04,51,11.30
2016,04,22,04,52,11.30
2016,04,22,04,53,11.30
2016,04,22,04,54,11.30
2016,04,22,04,55,11.30
2016,04,22,04,56,11.30
2016,04,22,04,57,11.30
2016,04,22,04,58,11.30
2016,04,22,04,59,11.30
2016,04,22,05,00,11.30
2016,04,22,05,01,11.30
2016,04,22,05,02,11.30
2016,04,22,05,03,11.30
2016,04,22,05,04,11.30
2016,04,22,05,05,11.30
2016,04,22,05,06,11.30
2016,04,22,05,07,11.20
2016,04,22,05,08,11.20
2016,04,22,05,09,11.20
2016,04,22,05,10,11.20
2016,04,22,05,11,11.20
2016,04,22,05,12,11.20
2016,04,22,05,13,11.20
2016,04,22,05,14,11.20
2016,04,22,05,15,11.20
2016,04,22,05,16,11.30
2016,04,22,05,17,11.30
2016,04,22,05,18,11.30
2016,04,22,05,19,11.30
2016,04,22,05,20,11.30
2016,04,22,05,21,11.30
2016,04,22,05,22,11.40
2016,04,22,05,23,11.40
2016,04,22,05,24,11.40
2016,04,22,05,25,11.40
2016,04,22,05,26,11.40
2016,04,22,05,27,11.40
2016,04,22,05,28,11.40
2016,04,22,05,29,11.40
2016,04,22,05,30,11.50
2016,04,22,05,31,11.60
2016,04,22,05,32,11.60
2016,04,22,05,33,11.60
2016,04,22,05,34,11.60
2016,04,22,05,35,11.60
2016,04,22,05,36,11.60
2016,04,22,05,37,11.60
2016,04,22,05,38,11.60
2016,04,22,05,39,11.60
2016,04,22,05,40,11.60
2016,04,22,05,41,11.60
2016,04,22,05,42,11.60
2016,04,22,05,43,11.60
2016,04,22,05,44,11.60
2016,04,22,05,45,11.60
2016,04,22,05,46,11.70
2016,04,22,05,47,11.70
2016,04,22,05,48,11.70
2016,04,22,05,49,11.70
2016,04,22,05,50,11.70
2016,04,22,05,51,11.70
2016,04,22,05,52,11.70
2016,04,22,05,53,11.70
2016,04,22,05,54,11.70
2016,04,22,05,55,11.70
2016,04,22,05,56,11.80
2016,04,22,05,57,11.80
2016,04,22,05,58,11.80
2016,04,22,05,59,11.80
2016,04,22,06,00,11.80
2016,04,22,06,01,11.80
2016,04,22,06,02,11.80
2016,04,22,06,03,11.80
2016,04,22,06,04,11.90
2016,04,22,06,05,11.90
2016,04,22,06,06,12.00
2016,04,22,06,07,12.00
2016,04,22,06,08,12.00
2016,04,22,06,09,12.10
2016,04,22,06,10,12.10
2016,04,22,06,11,12.10
2016,04,22,06,12,12.20
2016,04,22,06,13,12.30
2016,04,22,06,14,12.30
2016,04,22,06,15,12.40
2016,04,22,06,16,12.50
2016,04,22,06,17,12.50
2016,04,22,06,18,12.60
2016,04,22,06,19,12.60
2016,04,22,06,20,12.60
2016,04,22,06,21,12.70
2016,04,22,06,22,12.70
2016,04,22,06,23,12.70
2016,04,22,06,24,12.70
2016,04,22,06,25,12.80
2016,04,22,06,26,12.80
2016,04,22,06,27,12.80
2016,04,22,06,28,12.80
2016,04,22,06,29,12.80
2016,04,22,06,30,12.80
2016,04,22,06,31,12.80
2016,04,22,06,32,12.80
2016,04,22,06,33,12.80
2016,04,22,06,34,12.80
2016,04,22,06,35,12.80
2016,04,22,06,36,12.80
2016,04,22,06,37,12.80
2016,04,22,06,38,12.80
2016,04,22,06,39,12.80
2016,04,22,06,40,12.80
2016,04,22,06,41,12.80
2016,04,22,06,42,12.90
2016,04,22,06,43,12.90
2016,04,22,06,44,13.00
2016,04,22,06,45,13.20
2016,04,22,06,46,13.30
2016,04,22,06,47,13.50
2016,04,22,06,48,13.60
2016,04,22,06,49,13.80
2016,04,22,06,50,13.90
2016,04,22,06,51,14.00
2016,04,22,06,52,14.10
2016,04,22,06,53,14.20
2016,04,22,06,54,14.20
2016,04,22,06,55,14.30
2016,04,22,06,56,14.40
2016,04,22,06,57,14.40
2016,04,22,06,58,14.40
2016,04,22,06,59,14.50
2016,04,22,07,00,14.50
2016,04,22,07,01,14.50
2016,04,22,07,02,14.50
2016,04,22,07,03,14.50
2016,04,22,07,04,14.60
2016,04,22,07,05,14.60
2016,04,22,07,06,14.60
2016,04,22,07,07,14.60
2016,04,22,07,08,14.60
2016,04,22,07,09,14.60
2016,04,22,07,10,14.60
2016,04,22,07,11,14.60
2016,04,22,07,12,14.60
2016,04,22,07,13,14.60
2016,04,22,07,14,14.60
2016,04,22,07,15,14.60
2016,04,22,07,16,14.60
2016,04,22,07,17,14.60
2016,04,22,07,18,14.50
2016,04,22,07,19,14.50
2016,04,22,07,20,14.40
2016,04,22,07,21,14.40
2016,04,22,07,22,14.30
2016,04,22,07,23,14.30
2016,04,22,07,24,14.20
2016,04,22,07,25,14.20
2016,04,22,07,26,14.20
2016,04,22,07,27,14.10
2016,04,22,07,28,14.10
2016,04,22,07,29,14.00
2016,04,22,07,30,14.00
2016,04,22,07,31,14.00
2016,04,22,07,32,13.90
2016,04,22,07,33,13.90
2016,04,22,07,34,13.90
2016,04,22,07,35,13.90
2016,04,22,07,36,13.90
2016,04,22,07,37,13.90
2016,04,22,07,38,13.90
2016,04,22,07,39,13.90
2016,04,22,07,40,13.90
2016,04,22,07,41,13.80
2016,04,22,07,42,13.70
2016,04,22,07,43,13.70
2016,04,22,07,44,13.70
2016,04,22,07,45,13.70
2016,04,22,07,46,13.60
2016,04,22,07,47,13.60
2016,04,22,07,48,13.50
2016,04,22,07,49,13.50
2016,04,22,07,50,13.50
2016,04,22,07,51,13.50
2016,04,22,07,52,13.50
2016,04,22,07,53,13.50
2016,04,22,07,54,13.50
2016,04,22,07,55,13.50
2016,04,22,07,56,13.50
2016,04,22,07,57,13.50
2016,04,22,07,58,13.60
2016,04,22,07,59,13.60
2016,04,22,08,00,13.60
2016,04,22,08,01,13.70
2016,04,22,08,02,13.70
2016,04,22,08,03,13.70
2016,04,22,08,04,13.80
2016,04,22,08,05,13.90
2016,04,22,08,06,13.90
2016,04,22,08,07,14.00
2016,04,22,08,08,14.10
2016,04,22,08,09,14.20
2016,04,22,08,10,14.20
2016,04,22,08,11,14.30
2016,04,22,08,12,14.30
2016,04,22,08,13,14.40
2016,04,22,08,14,14.40
2016,04,22,08,15,14.40
2016,04,22,08,16,14.40
2016,04,22,08,17,14.40
2016,04,22,08,18,14.40
2016,04,22,08,19,14.40
2016,04,22,08,20,14.40
2016,04,22,08,21,14.40
2016,04,22,08,22,14.40
2016,04,22,08,23,14.40
2016,04,22,08,24,14.40
2016,04,22,08,25,14.40
2016,04,22,08,26,14.40
2016,04,22,08,27,14.40
2016,04,22,08,28,14.40
2016,04,22,08,29,14.40
2016,04,22,08,30,14.30
2016,04,22,08,31,14.30
2016,04,22,08,32,14.30
2016,04,22,08,33,14.20
2016,04,22,08,34,14.20
2016,04,22,08,35,14.20
2016,04,22,08,36,14.20
2016,04,22,08,37,14.10
2016,04,22,08,38,14.10
2016,04,22,08,39,14.10
2016,04,22,08,40,14.00
2016,04,22,08,41,14.00
2016,04,22,08,42,13.90
2016,04,22,08,43,13.90
2016,04,22,08,44,13.80
2016,04,22,08,45,13.80
2016,04,22,08,46,13.80
2016,04,22,08,47,13.70
2016,04,22,08,48,13.70
2016,04,22,08,49,13.70
2016,04,22,08,50,13.70
2016,04,22,08,51,13.70
2016,04,22,08,52,13.70
2016,04,22,08,53,13.70
2016,04,22,08,54,13.80
2016,04,22,08,55,13.80
2016,04,22,08,56,13.90
2016,04,22,08,57,13.90
2016,04,22,08,58,14.00
2016,04,22,08,59,14.10
2016,04,22,09,00,14.10
2016,04,22,09,01,14.20
2016,04,22,09,02,14.20
2016,04,22,09,03,14.30
2016,04,22,09,04,14.50
2016,04,22,09,05,14.50
2016,04,22,09,06,14.60
2016,04,22,09,07,14.70
2016,04,22,09,08,14.70
2016,04,22,09,09,14.70
2016,04,22,09,10,14.70
2016,04,22,09,11,14.70
2016,04,22,09,12,14.70
2016,04,22,09,13,14.70
2016,04,22,09,14,14.80
2016,04,22,09,15,14.80
2016,04,22,09,16,14.80
2016,04,22,09,17,14.90
2016,04,22,09,18,15.00
2016,04,22,09,19,15.10
2016,04,22,09,20,15.10
2016,04,22,09,21,15.10
2016,04,22,09,22,15.00
2016,04,22,09,23,15.00
2016,04,22,09,24,15.00
2016,04,22,09,25,15.00
2016,04,22,09,26,15.00
2016,04,22,09,27,15.10
2016,04,22,09,28,15.10
2016,04,22,09,29,15.10
2016,04,22,09,30,15.10
2016,04,22,09,31,15.20
2016,04,22,09,32,15.20
2016,04,22,09,33,15.20
2016,04,22,09,34,15.20
2016,04,22,09,35,15.20
2016,04,22,09,36,15.20
2016,04,22,09,37,15.20
2016,04,22,09,38,15.20
2016,04,22,09,39,15.20
2016,04,22,09,40,15.20
2016,04,22,09,41,15.20
2016,04,22,09,42,15.10
2016,04,22,09,43,15.10
2016,04,22,09,44,15.10
2016,04,22,09,45,15.10
2016,04,22,09,46,15.20
2016,04,22,09,47,15.20
2016,04,22,09,48,15.30
2016,04,22,09,49,15.30
2016,04,22,09,50,15.30
2016,04,22,09,51,15.30
2016,04,22,09,52,15.30
2016,04,22,09,53,15.40
2016,04,22,09,54,15.40
2016,04,22,09,55,15.30
2016,04,22,09,56,15.30
2016,04,22,09,57,15.30
2016,04,22,09,58,15.30
2016,04,22,09,59,15.30
2016,04,22,10,00,15.40
2016,04,22,10,01,15.50
2016,04,22,10,02,15.50
2016,04,22,10,03,15.60
2016,04,22,10,04,15.60
2016,04,22,10,05,15.60
2016,04,22,10,06,15.60
2016,04,22,10,07,15.70
2016,04,22,10,08,15.70
2016,04,22,10,09,15.70
2016,04,22,10,10,15.70
2016,04,22,10,11,15.70
2016,04,22,10,12,15.60
2016,04,22,10,13,15.60
2016,04,22,10,14,15.50
2016,04,22,10,15,15.50
2016,04,22,10,16,15.40
2016,04,22,10,17,15.40
2016,04,22,10,18,15.40
2016,04,22,10,19,15.40
2016,04,22,10,20,15.40
2016,04,22,10,21,15.50
2016,04,22,10,22,15.50
2016,04,22,10,23,15.60
2016,04,22,10,24,15.60
2016,04,22,10,25,15.70
2016,04,22,10,26,15.70
2016,04,22,10,27,15.80
2016,04,22,10,28,15.70
2016,04,22,10,29,15.70
2016,04,22,10,30,15.70
2016,04,22,10,31,15.70
2016,04,22,10,32,15.60
2016,04,22,10,33,15.70
2016,04,22,10,34,15.70
2016,04,22,10,35,15.70
2016,04,22,10,36,15.70
2016,04,22,10,37,15.70
2016,04,22,10,38,15.80
2016,04,22,10,39,15.80
2016,04,22,10,40,15.80
2016,04,22,10,41,15.90
2016,04,22,10,42,16.00
2016,04,22,10,43,16.10
2016,04,22,10,44,16.10
2016,04,22,10,45,16.10
2016,04,22,10,46,16.10
2016,04,22,10,47,16.10
2016,04,22,10,48,16.10
2016,04,22,10,49,16.10
2016,04,22,10,50,16.10
2016,04,22,10,51,16.10
2016,04,22,10,52,16.10
2016,04,22,10,53,16.10
2016,04,22,10,54,16.10
2016,04,22,10,55,16.10
2016,04,22,10,56,16.10
2016,04,22,10,57,16.10
2016,04,22,10,58,16.10
2016,04,22,10,59,16.10
2016,04,22,11,00,16.20
2016,04,22,11,01,16.20
2016,04,22,11,02,16.20
2016,04,22,11,03,16.20
2016,04,22,11,04,16.30
2016,04,22,11,05,16.30
2016,04,22,11,06,16.30
2016,04,22,11,07,16.20
2016,04,22,11,08,16.10
2016,04,22,11,09,16.10
2016,04,22,11,10,16.00
2016,04,22,11,11,15.90
2016,04,22,11,12,15.90
2016,04,22,11,13,15.80
2016,04,22,11,14,15.80
2016,04,22,11,15,15.80
2016,04,22,11,16,15.80
2016,04,22,11,17,15.80
2016,04,22,11,18,15.80
2016,04,22,11,19,15.80
2016,04,22,11,20,15.80
2016,04,22,11,21,15.90
2016,04,22,11,22,16.00
2016,04,22,11,23,16.10
2016,04,22,11,24,16.10
2016,04,22,11,25,16.10
2016,04,22,11,26,16.10
2016,04,22,11,27,16.10
2016,04,22,11,28,16.20
2016,04,22,11,29,16.20
2016,04,22,11,30,16.30
2016,04,22,11,31,16.30
2016,04,22,11,32,16.30
2016,04,22,11,33,16.30
2016,04,22,11,34,16.30
2016,04,22,11,35,16.30
2016,04,22,11,36,16.30
2016,04,22,11,37,16.20
2016,04,22,11,38,16.20
2016,04,22,11,39,16.30
2016,04,22,11,40,16.30
2016,04,22,11,41,16.40
2016,04,22,11,42,16.40
2016,04,22,11,43,16.50
2016,04,22,11,44,16.60
2016,04,22,11,45,16.70
2016,04,22,11,46,16.70
2016,04,22,11,47,16.70
2016,04,22,11,48,16.70
2016,04,22,11,49,16.70
2016,04,22,11,50,16.80
2016,04,22,11,51,16.80
2016,04,22,11,52,16.90
2016,04,22,11,53,16.90
2016,04,22,11,54,16.80
2016,04,22,11,55,16.80
2016,04,22,11,56,16.70
2016,04,22,11,57,16.70
2016,04,22,11,58,16.70
2016,04,22,11,59,16.60
2016,04,22,12,00,16.60
2016,04,22,12,01,16.60
2016,04,22,12,02,16.60
2016,04,22,12,03,16.50
2016,04,22,12,04,16.40
2016,04,22,12,05,16.30
2016,04,22,12,06,16.30
2016,04,22,12,07,16.20
2016,04,22,12,08,16.10
2016,04,22,12,09,16.10
2016,04,22,12,10,16.10
2016,04,22,12,11,16.00
2016,04,22,12,12,15.90
2016,04,22,12,13,15.90
2016,04,22,12,14,15.90
2016,04,22,12,15,15.80
2016,04,22,12,16,15.70
2016,04,22,12,17,15.60
2016,04,22,12,18,15.60
2016,04,22,12,19,15.50
2016,04,22,12,20,15.50
2016,04,22,12,21,15.40
2016,04,22,12,22,15.40
2016,04,22,12,23,15.40
2016,04,22,12,24,15.40
2016,04,22,12,25,15.30
2016,04,22,12,26,15.30
2016,04,22,12,27,15.30
2016,04,22,12,28,15.30
2016,04,22,12,29,15.40
2016,04,22,12,30,15.40
2016,04,22,12,31,15.50
2016,04,22,12,32,15.50
2016,04,22,12,33,15.50
2016,04,22,12,34,15.50
2016,04,22,12,35,15.50
2016,04,22,12,36,15.60
2016,04,22,12,37,15.60
2016,04,22,12,38,15.70
2016,04,22,12,39,15.70
2016,04,22,12,40,15.80
2016,04,22,12,41,15.80
2016,04,22,12,42,15.80
2016,04,22,12,43,15.80
2016,04,22,12,44,15.80
2016,04,22,12,45,15.80
2016,04,22,12,46,15.70
2016,04,22,12,47,15.70
2016,04,22,12,48,15.70
2016,04,22,12,49,15.80
2016,04,22,12,50,15.80
2016,04,22,12,51,15.90
2016,04,22,12,52,15.90
2016,04,22,12,53,16.00
2016,04,22,12,54,16.10
2016,04,22,12,55,16.10
2016,04,22,12,56,16.10
2016,04,22,12,57,16.30
2016,04,22,12,58,16.30
2016,04,22,12,59,16.30
2016,04,22,13,00,16.40
2016,04,22,13,01,16.40
2016,04,22,13,02,16.40
2016,04,22,13,03,16.40
2016,04,22,13,04,16.60
2016,04,22,13,05,16.80
2016,04,22,13,06,16.90
2016,04,22,13,07,17.00
2016,04,22,13,08,17.00
2016,04,22,13,09,17.10
2016,04,22,13,10,17.30
2016,04,22,13,11,17.30
2016,04,22,13,12,17.40
2016,04,22,13,13,17.40
2016,04,22,13,14,17.40
2016,04,22,13,15,17.40
2016,04,22,13,16,17.40
2016,04,22,13,17,17.50
2016,04,22,13,18,17.60
2016,04,22,13,19,17.70
2016,04,22,13,20,17.70
2016,04,22,13,21,17.70
2016,04,22,13,22,17.70
2016,04,22,13,23,17.80
2016,04,22,13,24,17.90
2016,04,22,13,25,18.00
2016,04,22,13,26,18.20
2016,04,22,13,27,18.30
2016,04,22,13,28,18.30
2016,04,22,13,29,18.30
2016,04,22,13,30,18.30
2016,04,22,13,31,18.40
2016,04,22,13,32,18.40
2016,04,22,13,33,18.40
2016,04,22,13,34,18.50
2016,04,22,13,35,18.60
2016,04,22,13,36,18.80
2016,04,22,13,37,18.80
2016,04,22,13,38,18.80
2016,04,22,13,39,18.90
2016,04,22,13,40,18.90
2016,04,22,13,41,18.80
2016,04,22,13,42,18.80
2016,04,22,13,43,18.80
2016,04,22,13,44,18.90
2016,04,22,13,45,18.80
2016,04,22,13,46,18.90
2016,04,22,13,47,18.90
2016,04,22,13,48,18.80
2016,04,22,13,49,18.80
2016,04,22,13,50,18.90
2016,04,22,13,51,19.00
2016,04,22,13,52,19.10
2016,04,22,13,53,19.00
2016,04,22,13,54,18.90
2016,04,22,13,55,19.00
2016,04,22,13,56,19.10
2016,04,22,13,57,19.10
2016,04,22,13,58,19.10
2016,04,22,13,59,19.10
2016,04,22,14,00,19.20
2016,04,22,14,01,19.30
2016,04,22,14,02,19.30
2016,04,22,14,03,19.40
2016,04,22,14,04,19.50
2016,04,22,14,05,19.50
2016,04,22,14,06,19.50
2016,04,22,14,07,19.60
2016,04,22,14,08,19.60
2016,04,22,14,09,19.50
2016,04,22,14,10,19.40
2016,04,22,14,11,19.30
2016,04,22,14,12,19.30
2016,04,22,14,13,19.30
2016,04,22,14,14,19.30
2016,04,22,14,15,19.30
2016,04,22,14,16,19.30
2016,04,22,14,17,19.10
2016,04,22,14,18,19.00
2016,04,22,14,19,18.90
2016,04,22,14,20,18.80
2016,04,22,14,21,18.70
2016,04,22,14,22,18.60
2016,04,22,14,23,18.60
2016,04,22,14,24,18.50
2016,04,22,14,25,18.40
2016,04,22,14,26,18.30
2016,04,22,14,27,18.20
2016,04,22,14,28,18.20
2016,04,22,14,29,18.20
2016,04,22,14,30,18.20
2016,04,22,14,31,18.20
2016,04,22,14,32,18.10
2016,04,22,14,33,18.10
2016,04,22,14,34,18.10
2016,04,22,14,35,18.10
2016,04,22,14,36,18.10
2016,04,22,14,37,18.10
2016,04,22,14,38,18.30
2016,04,22,14,39,18.40
2016,04,22,14,40,18.50
2016,04,22,14,41,18.60
2016,04,22,14,42,18.70
2016,04,22,14,43,18.60
2016,04,22,14,44,18.60
2016,04,22,14,45,18.50
2016,04,22,14,46,18.40
2016,04,22,14,47,18.30
2016,04,22,14,48,18.20
2016,04,22,14,49,18.10
2016,04,22,14,50,18.10
2016,04,22,14,51,18.00
2016,04,22,14,52,17.90
2016,04,22,14,53,17.90
2016,04,22,14,54,17.80
2016,04,22,14,55,17.70
2016,04,22,14,56,17.60
2016,04,22,14,57,17.60
2016,04,22,14,58,17.50
2016,04,22,14,59,17.40
2016,04,22,15,00,17.30
2016,04,22,15,01,17.30
2016,04,22,15,02,17.30
2016,04,22,15,03,17.30
2016,04,22,15,04,17.30
2016,04,22,15,05,17.30
2016,04,22,15,06,17.20
2016,04,22,15,07,17.10
2016,04,22,15,08,17.00
2016,04,22,15,09,16.90
2016,04,22,15,10,16.90
2016,04,22,15,11,16.80
2016,04,22,15,12,16.70
2016,04,22,15,13,16.70
2016,04,22,15,14,16.70
2016,04,22,15,15,16.60
2016,04,22,15,16,16.60
2016,04,22,15,17,16.40
2016,04,22,15,18,16.40
2016,04,22,15,19,16.40
2016,04,22,15,20,16.40
2016,04,22,15,21,16.40
2016,04,22,15,22,16.40
2016,04,22,15,23,16.40
2016,04,22,15,24,16.40
2016,04,22,15,25,16.50
2016,04,22,15,26,16.60
2016,04,22,15,27,16.60
2016,04,22,15,28,16.60
2016,04,22,15,29,16.60
2016,04,22,15,30,16.60
2016,04,22,15,31,16.50
2016,04,22,15,32,16.40
2016,04,22,15,33,16.40
2016,04,22,15,34,16.40
2016,04,22,15,35,16.40
2016,04,22,15,36,16.40
2016,04,22,15,37,16.40
2016,04,22,15,38,16.40
2016,04,22,15,39,16.30
2016,04,22,15,40,16.30
2016,04,22,15,41,16.30
2016,04,22,15,42,16.30
2016,04,22,15,43,16.20
2016,04,22,15,44,16.20
2016,04,22,15,45,16.20
2016,04,22,15,46,16.20
2016,04,22,15,47,16.10
2016,04,22,15,48,16.10
2016,04,22,15,49,16.10
2016,04,22,15,50,16.10
2016,04,22,15,51,16.10
2016,04,22,15,52,16.10
2016,04,22,15,53,16.10
2016,04,22,15,54,16.10
2016,04,22,15,55,16.10
2016,04,22,15,56,16.10
2016,04,22,15,57,16.10
2016,04,22,15,58,16.10
2016,04,22,15,59,16.10
2016,04,22,16,00,16.00
2016,04,22,16,01,15.90
2016,04,22,16,02,15.90
2016,04,22,16,03,15.80
2016,04,22,16,04,15.80
2016,04,22,16,05,15.80
2016,04,22,16,06,15.70
2016,04,22,16,07,15.60
2016,04,22,16,08,15.60
2016,04,22,16,09,15.60
2016,04,22,16,10,15.60
2016,04,22,16,11,15.60
2016,04,22,16,12,15.60
2016,04,22,16,13,15.60
2016,04,22,16,14,15.50
2016,04,22,16,15,15.50
2016,04,22,16,16,15.50
2016,04,22,16,17,15.50
2016,04,22,16,18,15.50
2016,04,22,16,19,15.50
2016,04,22,16,20,15.40
2016,04,22,16,21,15.40
2016,04,22,16,22,15.40
2016,04,22,16,23,15.40
2016,04,22,16,24,15.40
2016,04,22,16,25,15.40
2016,04,22,16,26,15.40
2016,04,22,16,27,15.50
2016,04,22,16,28,15.50
2016,04,22,16,29,15.40
2016,04,22,16,30,15.40
2016,04,22,16,31,15.40
2016,04,22,16,32,15.30
2016,04,22,16,33,15.30
2016,04,22,16,34,15.30
2016,04,22,16,35,15.20
2016,04,22,16,36,15.20
2016,04,22,16,37,15.20
2016,04,22,16,38,15.10
2016,04,22,16,39,15.10
2016,04,22,16,40,15.10
2016,04,22,16,41,15.10
2016,04,22,16,42,15.00
2016,04,22,16,43,15.00
2016,04,22,16,44,15.00
2016,04,22,16,45,14.90
2016,04,22,16,46,14.90
2016,04,22,16,47,14.80
2016,04,22,16,48,14.80
2016,04,22,16,49,14.80
2016,04,22,16,50,14.80
2016,04,22,16,51,14.80
2016,04,22,16,52,14.80
2016,04,22,16,53,14.70
2016,04,22,16,54,14.70
2016,04,22,16,55,14.70
2016,04,22,16,56,14.60
2016,04,22,16,57,14.60
2016,04,22,16,58,14.60
2016,04,22,16,59,14.60
2016,04,22,17,00,14.60
2016,04,22,17,01,14.50
2016,04,22,17,02,14.40
2016,04,22,17,03,14.40
2016,04,22,17,04,14.30
2016,04,22,17,05,14.20
2016,04,22,17,06,14.20
2016,04,22,17,07,14.20
2016,04,22,17,08,14.10
2016,04,22,17,09,14.10
2016,04,22,17,10,14.00
2016,04,22,17,11,14.00
2016,04,22,17,12,13.90
2016,04,22,17,13,13.90
2016,04,22,17,14,13.90
2016,04,22,17,15,13.90
2016,04,22,17,16,13.90
2016,04,22,17,17,13.90
2016,04,22,17,18,13.90
2016,04,22,17,19,13.90